This is the latest recevied weather packets stored in our database for station/object KC3JUG-13. If no packets are shown the sender has not sent any weather packets the latest 10 day(s).
| Time | Temp. | Humidity | Pressure | Rain* | Wind** | Luminosity | Snow |
|---|---|---|---|---|---|---|---|
| 1777496331 | 13.33° C | 74% | 1011.9 hPa | 0 mm | - | - | - |
| 1777495551 | 13.33° C | 74% | 1011.7 hPa | 0 mm | - | - | - |
| 1777494771 | 13.33° C | 73% | 1011.6 hPa | 0 mm | - | - | - |
| 1777493990 | 13.33° C | 73% | 1011.8 hPa | 0 mm | - | - | - |
| 1777493211 | 13.89° C | 72% | 1011.9 hPa | 0 mm | - | - | - |
| 1777492431 | 13.89° C | 73% | 1012.3 hPa | 0 mm | - | - | - |
| 1777491651 | 14.44° C | 73% | 1012.6 hPa | 0 mm | - | - | - |
| 1777490871 | 14.44° C | 70% | 1012.8 hPa | 0 mm | - | - | - |
| 1777490091 | 14.44° C | 69% | 1013.1 hPa | 0 mm | - | - | - |
| 1777489311 | 13.89° C | 71% | 1013.5 hPa | 0 mm | - | - | - |
| 1777488531 | 13.89° C | 72% | 1013.8 hPa | 0 mm | - | - | - |
| 1777487751 | 13.89° C | 70% | 1014.2 hPa | 0 mm | - | - | - |
| 1777486971 | 13.33° C | 70% | 1014.2 hPa | 0 mm | - | - | - |
| 1777486191 | 13.33° C | 71% | 1014.3 hPa | 0 mm | - | - | - |
| 1777485411 | 13.33° C | 71% | 1014.7 hPa | 0 mm | - | - | - |
| 1777484631 | 13.33° C | 70% | 1014.9 hPa | 0 mm | - | - | - |
| 1777483851 | 13.33° C | 67% | 1015.1 hPa | 0 mm | - | - | - |
| 1777483071 | 13.33° C | 64% | 1015.3 hPa | 0 mm | - | - | - |
| 1777482291 | 13.33° C | 64% | 1015.5 hPa | 0 mm | - | - | - |
| 1777481511 | 13.33° C | 62% | 1015.9 hPa | 0 mm | - | - | - |
| 1777480731 | 13.89° C | 63% | 1015.9 hPa | 0 mm | - | - | - |
| 1777479951 | 13.89° C | 62% | 1016 hPa | 0 mm | - | - | - |
| 1777479171 | 13.89° C | 64% | 1015.9 hPa | 0 mm | - | - | - |
| 1777478391 | 13.89° C | 65% | 1016 hPa | 0 mm | - | - | - |
| 1777477611 | 13.89° C | 65% | 1016.1 hPa | 0 mm | - | - | - |
* Rain latest hour (hover to see other rain measurements)
** Current wind speed in m/s (hover to see current wind gust speed)